Historique des stations

Station météo de Lucay-le-Mâle

Altitude de la station : 128 m







Données météorologiques pour le 02/12/2021
Date
Heure
Températures Humidité Point de rosée Vitesse
du vent
Direction Rafales Windchill Pression Pluviométrie
Cumul
Date
Heure
Températures Humidité Point de rosée Vitesse
du vent
Direction Rafales Windchill Pression Pluviométrie
Cumul
02/12/2021 15:405.3 °C82 %2.5 °C6 km/hONO11 km/h5.31012 hPa0.6 mm
02/12/2021 15:305.6 °C82 %2.8 °C7 km/hONO11 km/h5.61012 hPa0.6 mm
02/12/2021 15:105.7 °C81 %2.7 °C8 km/hNO16 km/h5.71012 hPa0.6 mm
02/12/2021 15:005.8 °C81 %2.8 °C9 km/hNO13 km/h5.81012 hPa0.6 mm
02/12/2021 14:405.8 °C80 %2.6 °C10 km/hNO16 km/h3.61012 hPa0.6 mm
02/12/2021 14:305.9 °C81 %2.9 °C9 km/hNO16 km/h3.71012 hPa0.6 mm
02/12/2021 14:106.0 °C80 %2.8 °C9 km/hNNO21 km/h3.91011 hPa0.6 mm
02/12/2021 14:005.8 °C80 %2.7 °C10 km/hNNO19 km/h3.71012 hPa0.6 mm
02/12/2021 13:405.8 °C80 %2.7 °C10 km/hNO13 km/h4.11012 hPa0.6 mm
02/12/2021 13:305.6 °C80 %2.4 °C10 km/hNNO21 km/h3.21012 hPa0.6 mm
02/12/2021 13:105.6 °C81 %2.6 °C10 km/hNNO21 km/h3.11012 hPa0.6 mm
02/12/2021 13:005.4 °C82 %2.6 °C10 km/hNNO15 km/h3.11012 hPa0.6 mm
02/12/2021 12:405.3 °C81 %2.3 °C12 km/h18 km/h2.81012 hPa0.6 mm
02/12/2021 12:305.2 °C82 %2.3 °C14 km/h15 km/h2.91012 hPa0.6 mm
02/12/2021 12:105.1 °C82 %2.2 °C15 km/hNNO19 km/h2.31012 hPa0.6 mm
02/12/2021 12:005.1 °C81 %2.1 °C15 km/hNNO26 km/h1.71012 hPa0.6 mm
02/12/2021 11:405.3 °C82 %2.5 °C13 km/h29 km/h1.71012 hPa0.6 mm
02/12/2021 11:305.1 °C83 %2.5 °C12 km/h21 km/h2.21012 hPa0.6 mm
02/12/2021 11:104.8 °C84 %2.3 °C11 km/h18 km/h2.01012 hPa0.6 mm
02/12/2021 11:004.6 °C84 %2.1 °C10 km/h21 km/h1.61011 hPa0.6 mm
02/12/2021 10:404.4 °C85 %2.1 °C9 km/h21 km/h1.61011 hPa0.6 mm
02/12/2021 10:304.2 °C87 %2.3 °C8 km/h16 km/h1.71011 hPa0.6 mm
02/12/2021 10:104.1 °C88 %2.2 °C6 km/h18 km/h1.71011 hPa0.6 mm
02/12/2021 10:003.8 °C89 %2.1 °C6 km/h13 km/h3.81010 hPa0.6 mm
02/12/2021 09:403.6 °C90 %2.1 °C6 km/h10 km/h3.61010 hPa0.6 mm
02/12/2021 09:303.4 °C91 %2.1 °C8 km/h10 km/h3.41010 hPa0.6 mm
02/12/2021 09:103.6 °C89 %2.0 °C9 km/h10 km/h3.61010 hPa0.6 mm
02/12/2021 09:003.8 °C88 %2.0 °C11 km/h13 km/h1.61010 hPa0.6 mm
02/12/2021 08:404.2 °C88 %2.4 °C12 km/h27 km/h1.11009 hPa0.6 mm
02/12/2021 08:304.5 °C89 %2.8 °C12 km/h19 km/h1.71009 hPa0.6 mm
02/12/2021 08:104.7 °C91 %3.3 °C11 km/h23 km/h1.91009 hPa0.6 mm
02/12/2021 08:004.7 °C92 %3.5 °C11 km/h24 km/h1.51009 hPa0.6 mm
02/12/2021 07:404.6 °C93 %3.6 °C9 km/h19 km/h1.71008 hPa0.6 mm
02/12/2021 07:304.5 °C93 %3.5 °C8 km/h15 km/h1.91008 hPa0.6 mm
02/12/2021 07:104.4 °C93 %3.4 °C7 km/hNNO15 km/h2.21007 hPa0.6 mm
02/12/2021 07:004.3 °C94 %3.4 °C6 km/hNNO13 km/h2.21007 hPa0.6 mm
02/12/2021 06:404.2 °C94 %3.3 °C4 km/hNNO11 km/h4.21007 hPa0.4 mm
02/12/2021 06:304.1 °C94 %3.2 °C3 km/hNO10 km/h4.11007 hPa0.4 mm
02/12/2021 06:104.0 °C93 %3.0 °C3 km/hNO10 km/h4.01007 hPa0.4 mm
02/12/2021 06:003.9 °C93 %2.9 °C2 km/hNO8 km/h3.91007 hPa0.4 mm
02/12/2021 05:404.0 °C93 %3.0 °C2 km/hNO5 km/h4.01007 hPa0.4 mm
02/12/2021 05:303.9 °C93 %2.9 °C2 km/hNNO6 km/h3.91007 hPa0.2 mm
02/12/2021 05:103.9 °C93 %2.9 °C2 km/hNO6 km/h3.91007 hPa0.0 mm
02/12/2021 05:003.9 °C93 %2.9 °C3 km/hNO3 km/h3.91007 hPa0.0 mm
02/12/2021 04:404.2 °C93 %3.1 °C4 km/hNO6 km/h4.21007 hPa0.0 mm
02/12/2021 04:304.2 °C93 %3.2 °C5 km/hNO13 km/h4.21006 hPa0.0 mm
02/12/2021 04:104.2 °C93 %3.1 °C4 km/h8 km/h4.21006 hPa0.0 mm
02/12/2021 04:00---2 km/h---0 hPa0.0 mm
02/12/2021 03:104.1 °C93 %3.0 °C3 km/hONO5 km/h4.11006 hPa0.0 mm
02/12/2021 03:004.0 °C93 %3.0 °C3 km/h6 km/h4.01006 hPa0.0 mm
02/12/2021 02:404.3 °C93 %3.2 °C3 km/hO8 km/h4.31006 hPa0.0 mm
02/12/2021 02:304.4 °C93 %3.4 °C3 km/hONO6 km/h4.41006 hPa0.0 mm
02/12/2021 02:104.6 °C92 %3.4 °C3 km/hO6 km/h4.61006 hPa0.0 mm
02/12/2021 02:004.6 °C93 %3.6 °C3 km/hO6 km/h4.61006 hPa0.0 mm
02/12/2021 01:404.6 °C93 %3.5 °C3 km/hO8 km/h4.61005 hPa0.0 mm
02/12/2021 01:304.6 °C92 %3.4 °C3 km/hO6 km/h4.61005 hPa0.0 mm
02/12/2021 01:104.8 °C93 %3.8 °C3 km/hO10 km/h4.81005 hPa0.0 mm
02/12/2021 00:304.4 °C93 %3.4 °C4 km/hOSO6 km/h4.41006 hPa5.2 mm
02/12/2021 00:104.6 °C93 %3.5 °C4 km/hO8 km/h4.61006 hPa5.2 mm
02/12/2021 00:004.3 °C93 %3.2 °C4 km/hOSO6 km/h4.31006 hPa5.2 mm


Minima :

Température : 3.4 °C
Humidité : 80 %
Point de rosée : 2.0 °C
Vent moyen : 2 km/h
Windchill : 1.1
Pression atm. : 0 hPa
Maxima :

Température : 6.0 °C
Humidité : 94 %
Point de rosée : 3.8 °C
Vent moyen : 15 km/h
Windchill : 5.8
Pression atm. : 1012 hPa
Rafales max : 29 km/h
Cumul de pluie sur 24H : 5.2 mm

Lucay-le-Mâle est une commune du département Indre (36).
La station météorologique du réseau de l'association la plus proche de Lucay-le-Mâle est celle de Villegouin



Icône Facebook Association Météo Centre Icône Twitter Association Météo Centre Icône Chaîne Youtube Association Météo Centre Icône contact Association Météo Centre Icône Insta Association Météo Centre